Time,TemperatureF,DewpointF,PressureIn,WindDirection,WindDirectionDegrees,WindSpeedMPH,WindSpeedGustMPH,Humidity,HourlyPrecipIn,Conditions,Clouds,dailyrainin,SoftwareType,DateUTC
2013-01-10 00:04:00,56.1,50.7,29.26,North,0,0.0,0.0,82,0.00,,---,0.00,VWS V14.00,2013-01-10 05:04:00,
2013-01-10 00:07:00,56.3,50.9,29.26,North,0,0.0,0.0,82,0.00,,---,0.00,VWS V14.00,2013-01-10 05:07:00,
2013-01-10 00:13:00,56.1,50.7,29.26,North,0,0.0,0.9,82,0.00,,---,0.00,VWS V14.00,2013-01-10 05:13:00,
2013-01-10 00:16:00,55.9,50.5,29.26,North,0,0.0,0.9,82,0.00,,---,0.00,VWS V14.00,2013-01-10 05:16:00,
2013-01-10 00:22:00,55.9,50.5,29.26,North,0,0.0,0.9,82,0.00,,---,0.00,VWS V14.00,2013-01-10 05:22:00,
2013-01-10 00:28:00,55.9,50.2,29.26,North,0,0.0,0.9,81,0.00,,---,0.00,VWS V14.00,2013-01-10 05:28:00,
2013-01-10 00:34:00,55.8,50.4,29.26,North,0,0.0,0.9,82,0.00,,---,0.00,VWS V14.00,2013-01-10 05:34:00,
2013-01-10 00:37:00,55.8,50.4,29.26,North,0,0.0,0.9,82,0.00,,---,0.00,VWS V14.00,2013-01-10 05:37:00,
2013-01-10 00:43:00,55.6,50.2,29.26,North,0,0.0,0.9,82,0.00,,---,0.00,VWS V14.00,2013-01-10 05:43:00,
2013-01-10 00:49:00,55.4,50.0,29.26,North,0,0.0,0.9,82,0.00,,---,0.00,VWS V14.00,2013-01-10 05:49:00,
2013-01-10 00:55:00,55.4,50.0,29.26,North,0,0.0,0.9,82,0.00,,---,0.00,VWS V14.00,2013-01-10 05:55:00,
2013-01-10 01:01:00,55.2,49.8,29.26,North,0,0.0,0.0,82,0.00,,---,0.00,VWS V14.00,2013-01-10 06:01:00,
2013-01-10 01:07:00,55.0,49.7,29.26,North,0,0.0,0.0,82,0.00,,---,0.00,VWS V14.00,2013-01-10 06:07:00,
2013-01-10 01:13:00,54.9,49.5,29.26,North,0,0.0,0.0,82,0.00,,---,0.00,VWS V14.00,2013-01-10 06:13:00,
2013-01-10 01:19:00,54.5,49.1,29.26,North,0,0.0,0.0,82,0.00,,---,0.00,VWS V14.00,2013-01-10 06:19:00,
2013-01-10 01:25:00,54.5,49.1,29.26,North,0,0.0,0.0,82,0.00,,---,0.00,VWS V14.00,2013-01-10 06:25:00,
2013-01-10 01:31:00,54.1,48.8,29.26,North,0,0.0,0.0,82,0.00,,---,0.00,VWS V14.00,2013-01-10 06:31:00,
2013-01-10 01:37:00,54.1,48.5,29.26,North,0,0.0,0.0,81,0.00,,---,0.00,VWS V14.00,2013-01-10 06:37:00,
2013-01-10 01:43:00,54.0,48.3,29.26,North,0,0.0,0.0,81,0.00,,---,0.00,VWS V14.00,2013-01-10 06:43:00,
2013-01-10 01:49:00,53.8,48.1,29.26,North,0,0.0,1.1,81,0.00,,---,0.00,VWS V14.00,2013-01-10 06:49:00,
2013-01-10 01:55:00,53.6,47.9,29.26,North,0,0.0,1.1,81,0.00,,---,0.00,VWS V14.00,2013-01-10 06:55:00,
2013-01-10 02:01:00,53.2,47.6,29.26,North,0,0.0,0.0,81,0.00,,---,0.00,VWS V14.00,2013-01-10 07:01:00,
2013-01-10 02:07:00,53.4,48.1,29.26,North,0,0.0,0.0,82,0.00,,---,0.00,VWS V14.00,2013-01-10 07:07:00,
2013-01-10 02:13:00,53.2,47.9,29.26,North,0,0.0,0.0,82,0.00,,---,0.00,VWS V14.00,2013-01-10 07:13:00,
2013-01-10 02:19:00,53.1,47.7,29.26,North,0,0.0,0.0,82,0.00,,---,0.00,VWS V14.00,2013-01-10 07:19:00,
2013-01-10 02:25:00,52.9,47.5,29.26,North,0,0.0,0.0,82,0.00,,---,0.00,VWS V14.00,2013-01-10 07:25:00,
2013-01-10 02:31:00,52.7,47.0,29.26,North,0,0.0,0.0,81,0.00,,---,0.00,VWS V14.00,2013-01-10 07:31:00,
2013-01-10 02:38:00,52.5,47.2,29.26,North,0,0.0,0.0,82,0.00,,---,0.00,VWS V14.00,2013-01-10 07:38:00,
2013-01-10 02:44:00,52.3,46.7,29.26,North,0,0.0,0.0,81,0.00,,---,0.00,VWS V14.00,2013-01-10 07:44:00,
2013-01-10 02:50:00,52.3,46.7,29.26,North,0,0.0,0.0,81,0.00,,---,0.00,VWS V14.00,2013-01-10 07:50:00,
2013-01-10 02:56:00,52.2,46.5,29.26,North,0,0.0,0.0,81,0.00,,---,0.00,VWS V14.00,2013-01-10 07:56:00,
2013-01-10 03:02:00,52.0,46.3,29.26,North,0,0.0,0.0,81,0.00,,---,0.00,VWS V14.00,2013-01-10 08:02:00,
2013-01-10 03:08:00,51.8,46.2,29.26,North,0,0.0,0.0,81,0.00,,---,0.00,VWS V14.00,2013-01-10 08:08:00,
2013-01-10 03:14:00,52.0,46.7,29.26,North,0,0.0,0.0,82,0.00,,---,0.00,VWS V14.00,2013-01-10 08:14:00,
2013-01-10 03:20:00,52.0,46.7,29.26,North,0,0.0,0.0,82,0.00,,---,0.00,VWS V14.00,2013-01-10 08:20:00,
2013-01-10 03:26:00,51.6,46.3,29.26,North,0,0.0,0.0,82,0.00,,---,0.00,VWS V14.00,2013-01-10 08:26:00,
2013-01-10 03:32:00,51.6,46.3,29.26,North,0,0.0,0.0,82,0.00,,---,0.00,VWS V14.00,2013-01-10 08:32:00,
2013-01-10 03:38:00,51.4,46.1,29.26,North,0,0.0,0.0,82,0.00,,---,0.00,VWS V14.00,2013-01-10 08:38:00,
2013-01-10 03:44:00,51.3,46.0,29.26,North,0,0.0,0.0,82,0.00,,---,0.00,VWS V14.00,2013-01-10 08:44:00,
2013-01-10 03:50:00,51.1,45.8,29.26,North,0,0.0,0.0,82,0.00,,---,0.00,VWS V14.00,2013-01-10 08:50:00,
2013-01-10 03:56:00,51.1,45.8,29.26,North,0,0.0,0.0,82,0.00,,---,0.00,VWS V14.00,2013-01-10 08:56:00,
2013-01-10 04:02:00,51.1,45.8,29.26,North,0,0.0,0.0,82,0.00,,---,0.00,VWS V14.00,2013-01-10 09:02:00,
2013-01-10 04:08:00,51.1,45.8,29.26,North,0,0.0,0.0,82,0.00,,---,0.00,VWS V14.00,2013-01-10 09:08:00,
2013-01-10 04:14:00,50.9,45.6,29.26,North,0,0.0,0.0,82,0.00,,---,0.00,VWS V14.00,2013-01-10 09:14:00,
2013-01-10 04:20:00,50.7,45.4,29.26,North,0,0.0,0.0,82,0.00,,---,0.00,VWS V14.00,2013-01-10 09:20:00,
2013-01-10 04:26:00,50.7,45.4,29.26,North,0,0.0,0.0,82,0.00,,---,0.00,VWS V14.00,2013-01-10 09:26:00,
2013-01-10 04:32:00,50.7,45.4,29.23,North,0,0.0,0.0,82,0.00,,---,0.00,VWS V14.00,2013-01-10 09:32:00,
2013-01-10 04:38:00,50.7,45.4,29.23,North,0,0.0,0.0,82,0.00,,---,0.00,VWS V14.00,2013-01-10 09:38:00,
2013-01-10 04:44:00,50.5,45.3,29.23,North,0,0.0,0.0,82,0.00,,---,0.00,VWS V14.00,2013-01-10 09:44:00,
2013-01-10 04:50:00,50.4,45.1,29.23,North,0,0.0,0.0,82,0.00,,---,0.00,VWS V14.00,2013-01-10 09:50:00,
2013-01-10 04:56:00,50.4,45.1,29.23,North,0,0.0,0.0,82,0.00,,---,0.00,VWS V14.00,2013-01-10 09:56:00,
2013-01-10 05:02:00,50.4,45.1,29.23,North,0,0.0,0.0,82,0.00,,---,0.00,VWS V14.00,2013-01-10 10:02:00,
2013-01-10 05:08:00,50.4,45.1,29.23,North,0,0.0,0.0,82,0.00,,---,0.00,VWS V14.00,2013-01-10 10:08:00,
2013-01-10 05:14:00,50.2,44.9,29.23,North,0,0.0,0.0,82,0.00,,---,0.00,VWS V14.00,2013-01-10 10:14:00,
2013-01-10 05:20:00,50.0,44.7,29.23,North,0,0.0,0.0,82,0.00,,---,0.00,VWS V14.00,2013-01-10 10:20:00,
2013-01-10 05:26:00,50.2,44.9,29.23,North,0,0.0,0.0,82,0.00,,---,0.00,VWS V14.00,2013-01-10 10:26:00,
2013-01-10 05:32:00,49.8,44.9,29.23,North,0,0.0,0.0,83,0.00,,---,0.00,VWS V14.00,2013-01-10 10:32:00,
2013-01-10 05:38:00,49.8,44.9,29.23,North,0,0.0,0.0,83,0.00,,---,0.00,VWS V14.00,2013-01-10 10:38:00,
2013-01-10 05:44:00,49.8,44.9,29.23,North,0,0.0,0.0,83,0.00,,---,0.00,VWS V14.00,2013-01-10 10:44:00,
2013-01-10 05:50:00,49.8,44.9,29.23,North,0,0.0,0.0,83,0.00,,---,0.00,VWS V14.00,2013-01-10 10:50:00,
2013-01-10 05:56:00,50.0,45.0,29.23,North,0,0.0,0.0,83,0.00,,---,0.00,VWS V14.00,2013-01-10 10:56:00,
2013-01-10 06:02:00,50.2,45.2,29.23,North,0,0.0,0.0,83,0.00,,---,0.00,VWS V14.00,2013-01-10 11:02:00,
2013-01-10 06:08:00,50.0,45.0,29.23,North,0,0.0,0.0,83,0.00,,---,0.00,VWS V14.00,2013-01-10 11:08:00,
2013-01-10 06:14:00,50.0,45.0,29.23,North,0,0.0,0.0,83,0.00,,---,0.00,VWS V14.00,2013-01-10 11:14:00,
2013-01-10 06:20:00,50.0,45.0,29.23,North,0,0.0,0.0,83,0.00,,---,0.00,VWS V14.00,2013-01-10 11:20:00,
2013-01-10 06:26:00,50.2,45.5,29.23,North,0,0.0,0.0,84,0.00,,---,0.00,VWS V14.00,2013-01-10 11:26:00,
2013-01-10 06:32:00,50.0,45.0,29.23,North,0,0.0,0.0,83,0.00,,---,0.00,VWS V14.00,2013-01-10 11:32:00,
2013-01-10 06:38:00,50.0,45.0,29.23,North,0,0.0,0.0,83,0.00,,---,0.00,VWS V14.00,2013-01-10 11:38:00,
2013-01-10 06:44:00,50.0,45.0,29.23,North,0,0.0,0.0,83,0.00,,---,0.00,VWS V14.00,2013-01-10 11:44:00,
2013-01-10 06:51:00,50.0,45.0,29.23,North,0,0.0,0.0,83,0.00,,---,0.00,VWS V14.00,2013-01-10 11:51:00,
2013-01-10 06:57:00,50.0,45.4,29.23,North,0,0.0,0.0,84,0.00,,---,0.00,VWS V14.00,2013-01-10 11:57:00,
2013-01-10 07:03:00,50.0,45.4,29.26,North,0,0.0,0.0,84,0.00,,---,0.00,VWS V14.00,2013-01-10 12:03:00,
2013-01-10 07:09:00,50.0,45.4,29.26,North,0,0.0,0.0,84,0.00,,---,0.00,VWS V14.00,2013-01-10 12:09:00,
2013-01-10 07:15:00,49.6,45.0,29.26,North,0,0.0,0.0,84,0.00,,---,0.00,VWS V14.00,2013-01-10 12:15:00,
2013-01-10 07:21:00,49.6,45.0,29.26,North,0,0.0,0.0,84,0.00,,---,0.00,VWS V14.00,2013-01-10 12:21:00,
2013-01-10 07:27:00,49.3,44.3,29.26,North,0,0.0,0.0,83,0.00,,---,0.00,VWS V14.00,2013-01-10 12:27:00,
2013-01-10 07:33:00,49.3,44.7,29.26,North,0,0.0,0.0,84,0.00,,---,0.00,VWS V14.00,2013-01-10 12:33:00,
2013-01-10 07:39:00,49.3,44.7,29.26,North,0,0.0,0.0,84,0.00,,---,0.00,VWS V14.00,2013-01-10 12:39:00,
2013-01-10 07:45:00,49.3,44.7,29.26,North,0,0.0,0.0,84,0.00,,---,0.00,VWS V14.00,2013-01-10 12:45:00,
2013-01-10 07:51:00,49.1,44.2,29.26,North,0,0.0,0.0,83,0.00,,---,0.00,VWS V14.00,2013-01-10 12:51:00,
2013-01-10 07:57:00,49.3,44.3,29.26,North,0,0.0,0.0,83,0.00,,---,0.00,VWS V14.00,2013-01-10 12:57:00,
2013-01-10 08:03:00,49.1,44.2,29.26,North,0,0.0,0.0,83,0.00,,---,0.00,VWS V14.00,2013-01-10 13:03:00,
2013-01-10 08:09:00,49.3,44.3,29.26,North,0,0.0,0.0,83,0.00,,---,0.00,VWS V14.00,2013-01-10 13:09:00,
2013-01-10 08:15:00,49.3,44.3,29.26,North,0,0.0,0.0,83,0.00,,---,0.00,VWS V14.00,2013-01-10 13:15:00,
2013-01-10 08:21:00,49.5,44.8,29.29,North,0,0.0,0.0,84,0.00,,---,0.00,VWS V14.00,2013-01-10 13:21:00,
2013-01-10 08:27:00,49.6,45.0,29.29,North,0,0.0,0.0,84,0.00,,---,0.00,VWS V14.00,2013-01-10 13:27:00,
2013-01-10 08:33:00,49.8,45.2,29.29,North,0,0.0,0.0,84,0.00,,---,0.00,VWS V14.00,2013-01-10 13:33:00,
2013-01-10 08:39:00,50.2,45.8,29.29,North,0,0.0,0.0,85,0.00,,---,0.00,VWS V14.00,2013-01-10 13:39:00,
2013-01-10 08:45:00,50.4,46.0,29.29,North,0,0.0,0.0,85,0.00,,---,0.00,VWS V14.00,2013-01-10 13:45:00,
2013-01-10 08:51:00,50.7,46.4,29.26,North,0,0.0,0.0,85,0.00,,---,0.00,VWS V14.00,2013-01-10 13:51:00,
2013-01-10 08:57:00,51.1,47.0,29.26,North,0,0.0,0.0,86,0.00,,---,0.00,VWS V14.00,2013-01-10 13:57:00,
2013-01-10 09:03:00,51.4,47.4,29.29,North,0,0.0,0.0,86,0.00,,---,0.00,VWS V14.00,2013-01-10 14:03:00,
2013-01-10 09:09:00,51.8,47.8,29.29,North,0,0.0,0.0,86,0.00,,---,0.00,VWS V14.00,2013-01-10 14:09:00,
2013-01-10 09:15:00,52.2,48.1,29.29,North,0,0.0,0.0,86,0.00,,---,0.00,VWS V14.00,2013-01-10 14:15:00,
2013-01-10 09:21:00,52.5,48.5,29.29,North,0,0.0,0.0,86,0.00,,---,0.00,VWS V14.00,2013-01-10 14:21:00,
2013-01-10 09:27:00,53.1,49.3,29.29,North,0,0.0,0.0,87,0.00,,---,0.00,VWS V14.00,2013-01-10 14:27:00,
2013-01-10 09:33:00,53.8,50.0,29.29,North,0,0.0,0.0,87,0.00,,---,0.00,VWS V14.00,2013-01-10 14:33:00,
2013-01-10 09:39:00,54.3,50.5,29.29,North,0,0.0,0.0,87,0.00,,---,0.00,VWS V14.00,2013-01-10 14:39:00,
2013-01-10 09:45:00,54.7,50.9,29.29,North,0,0.0,0.0,87,0.00,,---,0.00,VWS V14.00,2013-01-10 14:45:00,
2013-01-10 09:51:00,55.2,51.7,29.29,North,0,0.0,0.0,88,0.00,,---,0.00,VWS V14.00,2013-01-10 14:51:00,
2013-01-10 09:57:00,55.9,52.4,29.29,NE,45,0.0,0.0,88,0.00,,---,0.00,VWS V14.00,2013-01-10 14:57:00,
2013-01-10 10:03:00,56.3,52.5,29.29,NE,45,0.0,0.0,87,0.00,,---,0.00,VWS V14.00,2013-01-10 15:03:00,
2013-01-10 10:09:00,56.8,52.7,29.29,NNE,22,0.0,0.0,86,0.00,,---,0.00,VWS V14.00,2013-01-10 15:09:00,
2013-01-10 10:15:00,57.4,52.9,29.29,NE,45,0.0,0.0,85,0.00,,---,0.00,VWS V14.00,2013-01-10 15:15:00,
2013-01-10 10:21:00,58.1,53.3,29.29,NE,45,1.3,1.3,84,0.00,,---,0.00,VWS V14.00,2013-01-10 15:21:00,
2013-01-10 10:27:00,58.6,53.5,29.29,NE,45,0.0,1.3,83,0.00,,---,0.00,VWS V14.00,2013-01-10 15:27:00,
2013-01-10 10:33:00,59.2,53.7,29.29,East,90,2.7,2.7,82,0.00,,---,0.00,VWS V14.00,2013-01-10 15:33:00,
2013-01-10 10:39:00,60.3,54.4,29.29,ENE,68,1.1,2.7,81,0.00,,---,0.00,VWS V14.00,2013-01-10 15:39:00,
2013-01-10 10:45:00,61.0,54.4,29.29,ENE,68,2.2,2.9,79,0.00,,---,0.00,VWS V14.00,2013-01-10 15:45:00,
2013-01-10 10:51:00,62.2,55.3,29.29,ENE,68,2.2,3.1,78,0.00,,---,0.00,VWS V14.00,2013-01-10 15:51:00,
2013-01-10 10:57:00,62.8,55.1,29.29,ENE,68,2.5,3.4,76,0.00,,---,0.00,VWS V14.00,2013-01-10 15:57:00,
2013-01-10 11:03:00,63.0,54.9,29.29,East,90,2.0,2.5,75,0.00,,---,0.00,VWS V14.00,2013-01-10 16:03:00,
2013-01-10 11:09:00,63.5,55.4,29.29,ESE,112,2.0,2.5,75,0.00,,---,0.00,VWS V14.00,2013-01-10 16:09:00,
2013-01-10 11:15:00,64.0,55.6,29.29,ESE,112,1.3,2.9,74,0.00,,---,0.00,VWS V14.00,2013-01-10 16:15:00,
2013-01-10 11:22:00,64.4,55.6,29.29,ESE,112,3.1,4.5,73,0.00,,---,0.00,VWS V14.00,2013-01-10 16:22:00,
2013-01-10 11:28:00,64.8,55.5,29.29,NE,45,2.5,4.5,72,0.00,,---,0.00,VWS V14.00,2013-01-10 16:28:00,
2013-01-10 11:34:00,65.3,56.0,29.29,ENE,68,2.9,4.5,72,0.00,,---,0.00,VWS V14.00,2013-01-10 16:34:00,
2013-01-10 11:40:00,65.3,55.7,29.29,ENE,68,2.5,4.5,71,0.00,,---,0.00,VWS V14.00,2013-01-10 16:40:00,
2013-01-10 11:46:00,65.3,55.7,29.29,NE,45,3.6,4.5,71,0.00,,---,0.00,VWS V14.00,2013-01-10 16:46:00,
2013-01-10 11:52:00,65.7,56.0,29.26,East,90,2.5,4.5,71,0.00,,---,0.00,VWS V14.00,2013-01-10 16:52:00,
2013-01-10 11:58:00,65.7,56.0,29.26,East,90,3.6,4.5,71,0.00,,---,0.00,VWS V14.00,2013-01-10 16:58:00,
2013-01-10 12:04:00,65.7,56.0,29.26,ENE,68,2.0,2.7,71,0.00,,---,0.00,VWS V14.00,2013-01-10 17:04:00,
2013-01-10 12:10:00,65.8,55.8,29.26,ENE,68,2.7,2.7,70,0.00,,---,0.00,VWS V14.00,2013-01-10 17:10:00,
2013-01-10 12:16:00,66.0,56.0,29.26,NE,45,2.5,2.7,70,0.00,,---,0.00,VWS V14.00,2013-01-10 17:16:00,
2013-01-10 12:22:00,66.4,55.9,29.26,East,90,3.4,3.4,69,0.00,,---,0.00,VWS V14.00,2013-01-10 17:22:00,
2013-01-10 12:28:00,66.6,56.1,29.26,East,90,3.1,4.3,69,0.00,,---,0.00,VWS V14.00,2013-01-10 17:28:00,
2013-01-10 12:34:00,66.9,56.4,29.23,ENE,68,2.2,4.3,69,0.00,,---,0.00,VWS V14.00,2013-01-10 17:34:00,
2013-01-10 12:40:00,66.9,56.4,29.23,East,90,1.3,4.3,69,0.00,,---,0.00,VWS V14.00,2013-01-10 17:40:00,
2013-01-10 12:46:00,66.7,56.3,29.23,East,90,3.8,4.3,69,0.00,,---,0.00,VWS V14.00,2013-01-10 17:46:00,
2013-01-10 12:52:00,66.7,56.3,29.23,NE,45,2.5,4.3,69,0.00,,---,0.00,VWS V14.00,2013-01-10 17:52:00,
2013-01-10 12:58:00,66.9,56.0,29.23,East,90,3.1,4.3,68,0.00,,---,0.00,VWS V14.00,2013-01-10 17:58:00,
2013-01-10 13:04:00,66.9,56.0,29.23,East,90,2.5,3.4,68,0.00,,---,0.00,VWS V14.00,2013-01-10 18:04:00,
2013-01-10 13:10:00,66.7,55.8,29.23,East,90,2.0,3.4,68,0.00,,---,0.00,VWS V14.00,2013-01-10 18:10:00,
2013-01-10 13:16:00,66.7,55.8,29.23,ENE,68,2.5,4.0,68,0.00,,---,0.00,VWS V14.00,2013-01-10 18:16:00,
2013-01-10 13:22:00,67.3,56.4,29.20,NE,45,1.3,4.3,68,0.00,,---,0.00,VWS V14.00,2013-01-10 18:22:00,
2013-01-10 13:28:00,67.5,56.5,29.20,ENE,68,1.3,4.3,68,0.00,,---,0.00,VWS V14.00,2013-01-10 18:28:00,
2013-01-10 13:34:00,67.6,56.7,29.20,East,90,2.5,4.3,68,0.00,,---,0.00,VWS V14.00,2013-01-10 18:34:00,
2013-01-10 13:40:00,67.8,56.9,29.20,East,90,4.0,7.4,68,0.00,,---,0.00,VWS V14.00,2013-01-10 18:40:00,
2013-01-10 13:46:00,68.2,57.2,29.20,NE,45,0.9,7.4,68,0.00,,---,0.00,VWS V14.00,2013-01-10 18:46:00,
2013-01-10 13:52:00,68.7,57.3,29.20,ENE,68,3.6,7.4,67,0.00,,---,0.00,VWS V14.00,2013-01-10 18:52:00,
2013-01-10 13:58:00,68.7,57.3,29.20,SE,135,1.6,7.4,67,0.00,,---,0.00,VWS V14.00,2013-01-10 18:58:00,
2013-01-10 14:04:00,69.1,57.7,29.20,NE,45,2.5,3.1,67,0.00,,---,0.00,VWS V14.00,2013-01-10 19:04:00,
2013-01-10 14:10:00,69.3,57.8,29.20,East,90,1.3,4.0,67,0.00,,---,0.00,VWS V14.00,2013-01-10 19:10:00,
2013-01-10 14:16:00,69.4,57.6,29.20,NE,45,3.6,4.0,66,0.00,,---,0.00,VWS V14.00,2013-01-10 19:16:00,
2013-01-10 14:22:00,69.3,57.4,29.20,ENE,68,2.0,4.0,66,0.00,,---,0.00,VWS V14.00,2013-01-10 19:22:00,
2013-01-10 14:28:00,69.6,57.8,29.20,NE,45,2.0,4.0,66,0.00,,---,0.00,VWS V14.00,2013-01-10 19:28:00,
2013-01-10 14:34:00,70.0,57.7,29.20,East,90,4.0,4.0,65,0.00,,---,0.00,VWS V14.00,2013-01-10 19:34:00,
2013-01-10 14:40:00,69.3,57.0,29.20,SSE,158,4.3,4.3,65,0.00,,---,0.00,VWS V14.00,2013-01-10 19:40:00,
2013-01-10 14:46:00,69.3,57.0,29.20,East,90,2.5,4.3,65,0.00,,---,0.00,VWS V14.00,2013-01-10 19:46:00,
2013-01-10 14:52:00,69.1,56.8,29.20,East,90,2.0,4.3,65,0.00,,---,0.00,VWS V14.00,2013-01-10 19:52:00,
2013-01-10 14:58:00,69.1,56.8,29.20,NE,45,0.9,4.3,65,0.00,,---,0.00,VWS V14.00,2013-01-10 19:58:00,
2013-01-10 15:05:00,69.3,57.0,29.20,East,90,1.1,2.0,65,0.00,,---,0.00,VWS V14.00,2013-01-10 20:05:00,
2013-01-10 15:11:00,69.3,57.0,29.20,ENE,68,2.7,2.7,65,0.00,,---,0.00,VWS V14.00,2013-01-10 20:11:00,
2013-01-10 15:17:00,69.3,57.0,29.20,NE,45,0.9,2.7,65,0.00,,---,0.00,VWS V14.00,2013-01-10 20:17:00,
2013-01-10 15:23:00,69.1,56.8,29.17,East,90,3.1,3.1,65,0.00,,---,0.00,VWS V14.00,2013-01-10 20:23:00,
2013-01-10 15:29:00,68.9,56.7,29.17,ESE,112,1.1,4.0,65,0.00,,---,0.00,VWS V14.00,2013-01-10 20:29:00,
2013-01-10 15:35:00,68.9,56.7,29.17,East,90,3.8,4.0,65,0.00,,---,0.00,VWS V14.00,2013-01-10 20:35:00,
2013-01-10 15:41:00,68.9,56.7,29.17,East,90,2.9,4.0,65,0.00,,---,0.00,VWS V14.00,2013-01-10 20:41:00,
2013-01-10 15:47:00,68.9,56.7,29.17,East,90,2.5,4.0,65,0.00,,---,0.00,VWS V14.00,2013-01-10 20:47:00,
2013-01-10 15:53:00,68.7,56.1,29.20,East,90,1.6,5.4,64,0.00,,---,0.00,VWS V14.00,2013-01-10 20:53:00,
2013-01-10 15:59:00,68.5,56.3,29.20,ENE,68,2.2,5.4,65,0.00,,---,0.00,VWS V14.00,2013-01-10 20:59:00,
2013-01-10 16:05:00,68.5,56.3,29.20,East,90,1.3,2.9,65,0.00,,---,0.00,VWS V14.00,2013-01-10 21:05:00,
2013-01-10 16:11:00,68.4,56.2,29.20,NE,45,1.1,2.9,65,0.00,,---,0.00,VWS V14.00,2013-01-10 21:11:00,
2013-01-10 16:17:00,68.2,56.0,29.17,NE,45,0.9,2.9,65,0.00,,---,0.00,VWS V14.00,2013-01-10 21:17:00,
2013-01-10 16:23:00,68.2,56.0,29.17,NE,45,1.1,2.9,65,0.00,,---,0.00,VWS V14.00,2013-01-10 21:23:00,
2013-01-10 16:29:00,68.2,56.0,29.17,NE,45,0.0,2.9,65,0.00,,---,0.00,VWS V14.00,2013-01-10 21:29:00,
2013-01-10 16:35:00,68.0,56.2,29.20,NE,45,2.0,2.9,66,0.00,,---,0.00,VWS V14.00,2013-01-10 21:35:00,
2013-01-10 16:41:00,68.0,56.7,29.20,NE,45,1.6,2.9,67,0.00,,---,0.00,VWS V14.00,2013-01-10 21:41:00,
2013-01-10 16:47:00,68.0,56.2,29.20,ENE,68,2.0,2.9,66,0.00,,---,0.00,VWS V14.00,2013-01-10 21:47:00,
2013-01-10 16:53:00,67.8,56.5,29.20,East,90,1.3,2.9,67,0.00,,---,0.00,VWS V14.00,2013-01-10 21:53:00,
2013-01-10 16:59:00,67.6,56.3,29.20,NE,45,0.0,2.9,67,0.00,,---,0.00,VWS V14.00,2013-01-10 21:59:00,
2013-01-10 17:05:00,67.5,56.1,29.20,NE,45,0.0,0.0,67,0.00,,---,0.00,VWS V14.00,2013-01-10 22:05:00,
2013-01-10 17:11:00,67.1,56.2,29.20,ENE,68,0.0,0.0,68,0.00,,---,0.00,VWS V14.00,2013-01-10 22:11:00,
2013-01-10 17:17:00,66.9,56.0,29.20,NE,45,0.0,0.0,68,0.00,,---,0.00,VWS V14.00,2013-01-10 22:17:00,
2013-01-10 17:23:00,66.7,55.8,29.20,NE,45,0.0,0.0,68,0.00,,---,0.00,VWS V14.00,2013-01-10 22:23:00,
2013-01-10 17:29:00,66.6,55.7,29.20,NE,45,0.0,1.1,68,0.00,,---,0.00,VWS V14.00,2013-01-10 22:29:00,
2013-01-10 17:35:00,66.4,55.5,29.20,NE,45,0.0,1.1,68,0.00,,---,0.00,VWS V14.00,2013-01-10 22:35:00,
2013-01-10 17:41:00,66.0,55.6,29.20,NE,45,0.0,1.1,69,0.00,,---,0.00,VWS V14.00,2013-01-10 22:41:00,
2013-01-10 17:47:00,65.8,55.4,29.17,NE,45,0.0,1.1,69,0.00,,---,0.00,VWS V14.00,2013-01-10 22:47:00,
2013-01-10 17:53:00,65.7,55.2,29.17,NE,45,0.0,2.0,69,0.00,,---,0.00,VWS V14.00,2013-01-10 22:53:00,
2013-01-10 17:59:00,65.1,54.7,29.17,NE,45,0.0,2.0,69,0.00,,---,0.00,VWS V14.00,2013-01-10 22:59:00,
2013-01-10 18:05:00,64.9,54.5,29.17,ENE,68,1.3,1.3,69,0.00,,---,0.00,VWS V14.00,2013-01-10 23:05:00,
2013-01-10 18:11:00,64.6,54.2,29.17,NE,45,1.1,1.3,69,0.00,,---,0.00,VWS V14.00,2013-01-10 23:11:00,
2013-01-10 18:18:00,64.4,54.0,29.17,NE,45,0.0,1.3,69,0.00,,---,0.00,VWS V14.00,2013-01-10 23:18:00,
2013-01-10 18:24:00,64.2,53.8,29.17,NE,45,0.0,1.3,69,0.00,,---,0.00,VWS V14.00,2013-01-10 23:24:00,
2013-01-10 18:30:00,63.9,53.5,29.17,NE,45,0.0,1.3,69,0.00,,---,0.00,VWS V14.00,2013-01-10 23:30:00,
2013-01-10 18:36:00,63.9,53.5,29.17,NE,45,0.0,1.3,69,0.00,,---,0.00,VWS V14.00,2013-01-10 23:36:00,
2013-01-10 18:42:00,63.5,53.2,29.17,NE,45,0.0,1.3,69,0.00,,---,0.00,VWS V14.00,2013-01-10 23:42:00,
2013-01-10 18:48:00,63.3,53.4,29.17,North,0,0.0,1.3,70,0.00,,---,0.00,VWS V14.00,2013-01-10 23:48:00,
2013-01-10 18:54:00,63.3,53.4,29.17,North,0,0.0,1.3,70,0.00,,---,0.00,VWS V14.00,2013-01-10 23:54:00,
2013-01-10 19:00:00,63.1,53.2,29.17,North,0,0.0,1.3,70,0.00,,---,0.00,VWS V14.00,2013-01-11 00:00:00,
2013-01-10 19:06:00,63.1,53.2,29.17,North,0,0.0,0.0,70,0.00,,---,0.00,VWS V14.00,2013-01-11 00:06:00,
2013-01-10 19:12:00,63.1,53.2,29.17,North,0,0.0,0.0,70,0.00,,---,0.00,VWS V14.00,2013-01-11 00:12:00,
2013-01-10 19:18:00,63.0,53.0,29.17,NE,45,0.0,0.0,70,0.00,,---,0.00,VWS V14.00,2013-01-11 00:18:00,
2013-01-10 19:24:00,63.0,53.0,29.17,NE,45,1.3,1.3,70,0.00,,---,0.00,VWS V14.00,2013-01-11 00:24:00,
2013-01-10 19:30:00,63.0,53.0,29.17,NE,45,0.0,1.3,70,0.00,,---,0.00,VWS V14.00,2013-01-11 00:30:00,
2013-01-10 19:36:00,63.0,53.0,29.17,NE,45,0.0,1.3,70,0.00,,---,0.00,VWS V14.00,2013-01-11 00:36:00,
2013-01-10 19:42:00,62.8,52.9,29.17,NE,45,0.0,1.3,70,0.00,,---,0.00,VWS V14.00,2013-01-11 00:42:00,
2013-01-10 19:48:00,62.6,52.7,29.17,ENE,68,0.0,2.5,70,0.00,,---,0.00,VWS V14.00,2013-01-11 00:48:00,
2013-01-10 19:54:00,62.6,52.7,29.17,NE,45,0.0,2.5,70,0.00,,---,0.00,VWS V14.00,2013-01-11 00:54:00,
2013-01-10 20:00:00,62.6,52.7,29.17,ENE,68,1.3,2.5,70,0.00,,---,0.00,VWS V14.00,2013-01-11 01:00:00,
2013-01-10 20:06:00,62.6,52.7,29.17,NE,45,0.0,1.3,70,0.00,,---,0.00,VWS V14.00,2013-01-11 01:06:00,
2013-01-10 20:12:00,62.6,52.7,29.17,NE,45,0.0,1.3,70,0.00,,---,0.00,VWS V14.00,2013-01-11 01:12:00,
2013-01-10 20:18:00,62.6,52.7,29.17,NE,45,2.0,2.0,70,0.00,,---,0.00,VWS V14.00,2013-01-11 01:18:00,
2013-01-10 20:24:00,62.4,52.5,29.17,NNE,22,0.0,2.0,70,0.00,,---,0.00,VWS V14.00,2013-01-11 01:24:00,
2013-01-10 20:30:00,62.4,52.5,29.17,NE,45,0.0,2.0,70,0.00,,---,0.00,VWS V14.00,2013-01-11 01:30:00,
2013-01-10 20:36:00,62.4,52.5,29.17,NE,45,0.0,2.0,70,0.00,,---,0.00,VWS V14.00,2013-01-11 01:36:00,
2013-01-10 20:42:00,62.4,52.5,29.17,NE,45,0.0,2.0,70,0.00,,---,0.00,VWS V14.00,2013-01-11 01:42:00,
2013-01-10 20:48:00,62.4,52.5,29.17,ENE,68,0.0,2.0,70,0.00,,---,0.00,VWS V14.00,2013-01-11 01:48:00,
2013-01-10 20:54:00,62.2,52.3,29.17,ENE,68,2.7,2.7,70,0.00,,---,0.00,VWS V14.00,2013-01-11 01:54:00,
2013-01-10 21:00:00,62.2,52.7,29.17,NE,45,1.1,2.7,71,0.00,,---,0.00,VWS V14.00,2013-01-11 02:00:00,
2013-01-10 21:06:00,62.2,52.3,29.14,ENE,68,0.0,1.6,70,0.00,,---,0.00,VWS V14.00,2013-01-11 02:06:00,
2013-01-10 21:12:00,62.2,52.3,29.14,NE,45,0.9,1.6,70,0.00,,---,0.00,VWS V14.00,2013-01-11 02:12:00,
2013-01-10 21:18:00,62.1,52.6,29.17,NE,45,0.0,1.6,71,0.00,,---,0.00,VWS V14.00,2013-01-11 02:18:00,
2013-01-10 21:24:00,61.9,52.4,29.17,ENE,68,0.0,1.6,71,0.00,,---,0.00,VWS V14.00,2013-01-11 02:24:00,
2013-01-10 21:30:00,61.9,52.4,29.17,North,0,0.0,1.6,71,0.00,,---,0.00,VWS V14.00,2013-01-11 02:30:00,
2013-01-10 21:36:00,61.9,52.4,29.14,ESE,112,2.0,2.0,71,0.00,,---,0.00,VWS V14.00,2013-01-11 02:36:00,
2013-01-10 21:43:00,62.1,52.6,29.14,NE,45,1.3,2.0,71,0.00,,---,0.00,VWS V14.00,2013-01-11 02:43:00,
2013-01-10 21:49:00,62.2,52.3,29.17,ENE,68,1.3,2.0,70,0.00,,---,0.00,VWS V14.00,2013-01-11 02:49:00,
2013-01-10 21:55:00,62.2,52.3,29.17,ENE,68,0.0,2.0,70,0.00,,---,0.00,VWS V14.00,2013-01-11 02:55:00,
2013-01-10 22:01:00,62.1,52.6,29.17,NNE,22,0.0,0.0,71,0.00,,---,0.00,VWS V14.00,2013-01-11 03:01:00,
2013-01-10 22:07:00,61.9,52.4,29.14,North,0,0.0,2.0,71,0.00,,---,0.00,VWS V14.00,2013-01-11 03:07:00,
2013-01-10 22:13:00,61.9,52.4,29.14,NE,45,0.0,2.2,71,0.00,,---,0.00,VWS V14.00,2013-01-11 03:13:00,
2013-01-10 22:19:00,61.7,52.6,29.14,NE,45,0.0,2.2,72,0.00,,---,0.00,VWS V14.00,2013-01-11 03:19:00,
2013-01-10 22:25:00,61.5,52.4,29.14,NE,45,0.0,2.2,72,0.00,,---,0.00,VWS V14.00,2013-01-11 03:25:00,
2013-01-10 22:31:00,61.5,52.4,29.14,ENE,68,2.2,2.2,72,0.00,,---,0.00,VWS V14.00,2013-01-11 03:31:00,
2013-01-10 22:37:00,61.2,52.5,29.14,North,0,0.0,2.7,73,0.00,,---,0.00,VWS V14.00,2013-01-11 03:37:00,
2013-01-10 22:43:00,61.0,52.7,29.14,North,0,0.0,2.7,74,0.00,,---,0.00,VWS V14.00,2013-01-11 03:43:00,
2013-01-10 22:49:00,60.8,52.8,29.14,North,0,0.0,2.7,75,0.00,,---,0.00,VWS V14.00,2013-01-11 03:49:00,
2013-01-10 22:55:00,60.6,53.0,29.14,East,90,3.1,3.1,76,0.00,,---,0.00,VWS V14.00,2013-01-11 03:55:00,
2013-01-10 23:01:00,60.4,53.2,29.14,North,0,0.0,0.0,77,0.00,,---,0.00,VWS V14.00,2013-01-11 04:01:00,
2013-01-10 23:07:00,60.3,53.4,29.14,North,0,0.0,3.1,78,0.00,,---,0.00,VWS V14.00,2013-01-11 04:07:00,
2013-01-10 23:13:00,60.1,53.6,29.14,East,90,1.6,3.1,79,0.00,,---,0.00,VWS V14.00,2013-01-11 04:13:00,
2013-01-10 23:19:00,60.1,53.6,29.14,NE,45,0.0,3.1,79,0.00,,---,0.00,VWS V14.00,2013-01-11 04:19:00,
2013-01-10 23:25:00,60.1,53.9,29.14,NE,45,0.0,3.1,80,0.00,,---,0.00,VWS V14.00,2013-01-11 04:25:00,
2013-01-10 23:31:00,59.9,53.7,29.14,NE,45,0.0,3.1,80,0.00,,---,0.00,VWS V14.00,2013-01-11 04:31:00,
2013-01-10 23:37:00,59.7,53.5,29.14,NE,45,0.0,3.1,80,0.00,,---,0.00,VWS V14.00,2013-01-11 04:37:00,
2013-01-10 23:43:00,59.7,53.9,29.14,NE,45,0.0,3.1,81,0.00,,---,0.00,VWS V14.00,2013-01-11 04:43:00,
2013-01-10 23:49:00,59.5,53.7,29.14,NE,45,0.0,3.1,81,0.04,,---,0.04,VWS V14.00,2013-01-11 04:49:00,
2013-01-10 23:55:00,59.5,53.7,29.14,NE,45,0.0,3.1,81,0.04,,---,0.04,VWS V14.00,2013-01-11 04:55:00,